Year,Month,Day,Hour,Minute,Value (Times are PST for temperature in C)
2009,07,29,00,00,23.30
2009,07,29,00,01,23.30
2009,07,29,00,02,23.30
2009,07,29,00,03,23.30
2009,07,29,00,04,23.30
2009,07,29,00,05,23.20
2009,07,29,00,06,23.20
2009,07,29,00,07,23.20
2009,07,29,00,08,23.20
2009,07,29,00,09,23.20
2009,07,29,00,10,23.10
2009,07,29,00,11,23.10
2009,07,29,00,12,23.10
2009,07,29,00,13,23.10
2009,07,29,00,14,23.10
2009,07,29,00,15,23.10
2009,07,29,00,16,23.10
2009,07,29,00,17,23.10
2009,07,29,00,18,23.10
2009,07,29,00,19,23.10
2009,07,29,00,20,23.10
2009,07,29,00,21,23.10
2009,07,29,00,22,23.00
2009,07,29,00,23,22.90
2009,07,29,00,24,22.90
2009,07,29,00,25,22.90
2009,07,29,00,26,22.90
2009,07,29,00,27,22.90
2009,07,29,00,28,22.80
2009,07,29,00,29,22.80
2009,07,29,00,30,22.80
2009,07,29,00,31,22.70
2009,07,29,00,32,22.70
2009,07,29,00,33,22.70
2009,07,29,00,34,22.70
2009,07,29,00,35,22.60
2009,07,29,00,36,22.60
2009,07,29,00,37,22.60
2009,07,29,00,38,22.60
2009,07,29,00,39,22.60
2009,07,29,00,40,22.60
2009,07,29,00,41,22.60
2009,07,29,00,42,22.60
2009,07,29,00,43,22.60
2009,07,29,00,44,22.60
2009,07,29,00,45,22.50
2009,07,29,00,46,22.50
2009,07,29,00,47,22.50
2009,07,29,00,48,22.50
2009,07,29,00,49,22.50
2009,07,29,00,50,22.50
2009,07,29,00,51,22.60
2009,07,29,00,52,22.60
2009,07,29,00,53,22.60
2009,07,29,00,54,22.60
2009,07,29,00,55,22.60
2009,07,29,00,56,22.70
2009,07,29,00,57,22.70
2009,07,29,00,58,22.70
2009,07,29,00,59,22.70
2009,07,29,01,00,22.70
2009,07,29,01,01,22.70
2009,07,29,01,02,22.70
2009,07,29,01,03,22.80
2009,07,29,01,04,22.80
2009,07,29,01,05,22.80
2009,07,29,01,06,22.80
2009,07,29,01,07,22.80
2009,07,29,01,08,22.80
2009,07,29,01,09,22.80
2009,07,29,01,10,22.80
2009,07,29,01,11,22.80
2009,07,29,01,12,22.70
2009,07,29,01,13,22.70
2009,07,29,01,14,22.70
2009,07,29,01,15,22.70
2009,07,29,01,16,22.70
2009,07,29,01,17,22.70
2009,07,29,01,18,22.60
2009,07,29,01,19,22.60
2009,07,29,01,20,22.60
2009,07,29,01,21,22.60
2009,07,29,01,22,22.60
2009,07,29,01,23,22.60
2009,07,29,01,24,22.60
2009,07,29,01,25,22.50
2009,07,29,01,26,22.50
2009,07,29,01,27,22.50
2009,07,29,01,28,22.40
2009,07,29,01,29,22.40
2009,07,29,01,30,22.40
2009,07,29,01,31,22.40
2009,07,29,01,32,22.30
2009,07,29,01,33,22.30
2009,07,29,01,34,22.30
2009,07,29,01,35,22.30
2009,07,29,01,36,22.30
2009,07,29,01,37,22.20
2009,07,29,01,38,22.20
2009,07,29,01,39,22.20
2009,07,29,01,40,22.20
2009,07,29,01,41,22.20
2009,07,29,01,42,22.20
2009,07,29,01,43,22.20
2009,07,29,01,44,22.20
2009,07,29,01,45,22.10
2009,07,29,01,46,22.10
2009,07,29,01,47,22.10
2009,07,29,01,48,22.20
2009,07,29,01,49,22.20
2009,07,29,01,50,22.20
2009,07,29,01,51,22.20
2009,07,29,01,52,22.20
2009,07,29,01,53,22.20
2009,07,29,01,54,22.20
2009,07,29,01,55,22.20
2009,07,29,01,56,22.20
2009,07,29,01,57,22.10
2009,07,29,01,58,22.10
2009,07,29,01,59,22.10
2009,07,29,02,00,22.00
2009,07,29,02,01,22.00
2009,07,29,02,02,22.00
2009,07,29,02,03,21.90
2009,07,29,02,04,21.90
2009,07,29,02,05,21.90
2009,07,29,02,06,21.80
2009,07,29,02,07,21.80
2009,07,29,02,08,21.70
2009,07,29,02,09,21.70
2009,07,29,02,10,21.60
2009,07,29,02,11,21.60
2009,07,29,02,12,21.50
2009,07,29,02,13,21.40
2009,07,29,02,14,21.40
2009,07,29,02,15,21.30
2009,07,29,02,16,21.30
2009,07,29,02,17,21.20
2009,07,29,02,18,21.20
2009,07,29,02,19,21.10
2009,07,29,02,20,21.10
2009,07,29,02,21,21.10
2009,07,29,02,22,21.10
2009,07,29,02,23,21.10
2009,07,29,02,24,21.10
2009,07,29,02,25,21.10
2009,07,29,02,26,21.10
2009,07,29,02,27,21.00
2009,07,29,02,28,21.00
2009,07,29,02,29,21.00
2009,07,29,02,30,21.00
2009,07,29,02,31,21.00
2009,07,29,02,32,21.00
2009,07,29,02,33,21.00
2009,07,29,02,34,21.10
2009,07,29,02,35,21.10
2009,07,29,02,36,21.10
2009,07,29,02,37,21.00
2009,07,29,02,38,21.00
2009,07,29,02,39,21.00
2009,07,29,02,40,21.00
2009,07,29,02,41,21.00
2009,07,29,02,42,21.00
2009,07,29,02,43,21.00
2009,07,29,02,44,21.00
2009,07,29,02,45,21.00
2009,07,29,02,46,21.00
2009,07,29,02,47,21.00
2009,07,29,02,48,21.00
2009,07,29,02,49,20.90
2009,07,29,02,50,20.90
2009,07,29,02,51,20.90
2009,07,29,02,52,20.90
2009,07,29,02,53,20.90
2009,07,29,02,54,20.90
2009,07,29,02,55,21.00
2009,07,29,02,56,21.00
2009,07,29,02,57,21.00
2009,07,29,02,58,21.00
2009,07,29,02,59,21.00
2009,07,29,03,00,21.10
2009,07,29,03,01,21.10
2009,07,29,03,02,21.10
2009,07,29,03,03,21.10
2009,07,29,03,04,21.10
2009,07,29,03,05,21.10
2009,07,29,03,06,21.10
2009,07,29,03,07,21.10
2009,07,29,03,08,21.00
2009,07,29,03,09,21.00
2009,07,29,03,10,21.00
2009,07,29,03,11,20.90
2009,07,29,03,12,20.90
2009,07,29,03,13,20.90
2009,07,29,03,14,20.90
2009,07,29,03,15,20.90
2009,07,29,03,16,20.90
2009,07,29,03,17,20.80
2009,07,29,03,18,20.80
2009,07,29,03,19,20.70
2009,07,29,03,20,20.60
2009,07,29,03,21,20.60
2009,07,29,03,22,20.50
2009,07,29,03,23,20.50
2009,07,29,03,24,20.40
2009,07,29,03,25,20.30
2009,07,29,03,26,20.30
2009,07,29,03,27,20.20
2009,07,29,03,28,20.20
2009,07,29,03,29,20.20
2009,07,29,03,30,20.20
2009,07,29,03,31,20.20
2009,07,29,03,32,20.20
2009,07,29,03,33,20.20
2009,07,29,03,34,20.20
2009,07,29,03,35,20.20
2009,07,29,03,36,20.10
2009,07,29,03,37,20.00
2009,07,29,03,38,19.90
2009,07,29,03,39,19.80
2009,07,29,03,40,19.80
2009,07,29,03,41,19.70
2009,07,29,03,42,19.60
2009,07,29,03,43,19.60
2009,07,29,03,44,19.40
2009,07,29,03,45,19.30
2009,07,29,03,46,19.20
2009,07,29,03,47,19.10
2009,07,29,03,48,19.00
2009,07,29,03,49,18.90
2009,07,29,03,50,18.90
2009,07,29,03,51,18.90
2009,07,29,03,52,18.90
2009,07,29,03,53,18.90
2009,07,29,03,54,18.80
2009,07,29,03,55,18.80
2009,07,29,03,56,18.80
2009,07,29,03,57,18.80
2009,07,29,03,58,18.70
2009,07,29,03,59,18.70
2009,07,29,04,00,18.70
2009,07,29,04,01,18.70
2009,07,29,04,02,18.70
2009,07,29,04,03,18.70
2009,07,29,04,04,18.80
2009,07,29,04,05,18.80
2009,07,29,04,06,18.80
2009,07,29,04,07,18.80
2009,07,29,04,08,18.90
2009,07,29,04,09,18.90
2009,07,29,04,10,18.90
2009,07,29,04,11,19.00
2009,07,29,04,12,19.10
2009,07,29,04,13,19.10
2009,07,29,04,14,19.10
2009,07,29,04,15,19.10
2009,07,29,04,16,19.10
2009,07,29,04,17,19.10
2009,07,29,04,18,19.10
2009,07,29,04,19,19.10
2009,07,29,04,20,19.10
2009,07,29,04,21,19.10
2009,07,29,04,22,19.10
2009,07,29,04,23,19.10
2009,07,29,04,24,19.10
2009,07,29,04,25,19.10
2009,07,29,04,26,19.10
2009,07,29,04,27,19.00
2009,07,29,04,28,18.90
2009,07,29,04,29,18.90
2009,07,29,04,30,18.90
2009,07,29,04,31,18.90
2009,07,29,04,32,18.90
2009,07,29,04,33,18.80
2009,07,29,04,34,18.80
2009,07,29,04,35,18.80
2009,07,29,04,36,18.70
2009,07,29,04,37,18.70
2009,07,29,04,38,18.70
2009,07,29,04,39,18.70
2009,07,29,04,40,18.70
2009,07,29,04,41,18.70
2009,07,29,04,42,18.70
2009,07,29,04,43,18.70
2009,07,29,04,44,18.70
2009,07,29,04,45,18.70
2009,07,29,04,46,18.70
2009,07,29,04,47,18.80
2009,07,29,04,48,18.80
2009,07,29,04,49,18.80
2009,07,29,04,50,18.80
2009,07,29,04,51,18.80
2009,07,29,04,52,18.80
2009,07,29,04,53,18.70
2009,07,29,04,54,18.70
2009,07,29,04,55,18.70
2009,07,29,04,56,18.70
2009,07,29,04,57,18.70
2009,07,29,04,58,18.70
2009,07,29,04,59,18.70
2009,07,29,05,00,18.70
2009,07,29,05,01,18.70
2009,07,29,05,02,18.70
2009,07,29,05,03,18.80
2009,07,29,05,04,18.80
2009,07,29,05,05,18.80
2009,07,29,05,06,18.80
2009,07,29,05,07,18.80
2009,07,29,05,08,18.80
2009,07,29,05,09,18.80
2009,07,29,05,10,18.80
2009,07,29,05,11,18.80
2009,07,29,05,12,18.80
2009,07,29,05,13,18.80
2009,07,29,05,14,18.80
2009,07,29,05,15,18.80
2009,07,29,05,16,18.90
2009,07,29,05,17,18.90
2009,07,29,05,18,18.90
2009,07,29,05,19,18.90
2009,07,29,05,20,18.90
2009,07,29,05,21,18.90
2009,07,29,05,22,18.90
2009,07,29,05,23,18.90
2009,07,29,05,24,18.90
2009,07,29,05,25,18.90
2009,07,29,05,26,18.90
2009,07,29,05,27,18.90
2009,07,29,05,28,18.90
2009,07,29,05,29,18.90
2009,07,29,05,30,18.90
2009,07,29,05,31,18.90
2009,07,29,05,32,18.90
2009,07,29,05,33,18.90
2009,07,29,05,34,18.90
2009,07,29,05,35,18.90
2009,07,29,05,36,18.90
2009,07,29,05,37,18.90
2009,07,29,05,38,18.90
2009,07,29,05,39,18.90
2009,07,29,05,40,18.90
2009,07,29,05,41,18.90
2009,07,29,05,42,18.90
2009,07,29,05,43,18.90
2009,07,29,05,44,18.90
2009,07,29,05,45,18.90
2009,07,29,05,46,18.90
2009,07,29,05,47,19.00
2009,07,29,05,48,19.10
2009,07,29,05,49,19.10
2009,07,29,05,50,19.10
2009,07,29,05,51,19.10
2009,07,29,05,52,19.10
2009,07,29,05,53,19.10
2009,07,29,05,54,19.10
2009,07,29,05,55,19.20
2009,07,29,05,56,19.20
2009,07,29,05,57,19.20
2009,07,29,05,58,19.30
2009,07,29,05,59,19.30
2009,07,29,06,00,19.30
2009,07,29,06,01,19.30
2009,07,29,06,02,19.30
2009,07,29,06,03,19.30
2009,07,29,06,04,19.40
2009,07,29,06,05,19.40
2009,07,29,06,06,19.40
2009,07,29,06,07,19.50
2009,07,29,06,08,19.50
2009,07,29,06,09,19.50
2009,07,29,06,10,19.60
2009,07,29,06,11,19.60
2009,07,29,06,12,19.60
2009,07,29,06,13,19.60
2009,07,29,06,14,19.70
2009,07,29,06,15,19.70
2009,07,29,06,16,19.70
2009,07,29,06,17,19.70
2009,07,29,06,18,19.80
2009,07,29,06,19,19.80
2009,07,29,06,20,19.80
2009,07,29,06,21,19.90
2009,07,29,06,22,19.90
2009,07,29,06,23,19.90
2009,07,29,06,24,19.90
2009,07,29,06,25,20.00
2009,07,29,06,26,20.10
2009,07,29,06,27,20.10
2009,07,29,06,28,20.20
2009,07,29,06,29,20.20
2009,07,29,06,30,20.20
2009,07,29,06,31,20.30
2009,07,29,06,32,20.30
2009,07,29,06,33,20.40
2009,07,29,06,34,20.40
2009,07,29,06,35,20.40
2009,07,29,06,36,20.40
2009,07,29,06,37,20.40
2009,07,29,06,38,20.40
2009,07,29,06,39,20.40
2009,07,29,06,40,20.40
2009,07,29,06,41,20.30
2009,07,29,06,42,20.20
2009,07,29,06,43,20.20
2009,07,29,06,44,20.00
2009,07,29,06,45,19.90
2009,07,29,06,46,19.80
2009,07,29,06,47,19.70
2009,07,29,06,48,19.60
2009,07,29,06,49,19.60
2009,07,29,06,50,19.70
2009,07,29,06,51,19.70
2009,07,29,06,52,19.60
2009,07,29,06,53,19.50
2009,07,29,06,54,19.40
2009,07,29,06,55,19.30
2009,07,29,06,56,19.20
2009,07,29,06,57,19.00
2009,07,29,06,58,18.90
2009,07,29,06,59,18.80
2009,07,29,07,00,18.70
2009,07,29,07,01,18.70
2009,07,29,07,02,18.70
2009,07,29,07,03,18.70
2009,07,29,07,04,18.80
2009,07,29,07,05,18.90
2009,07,29,07,06,18.90
2009,07,29,07,07,18.90
2009,07,29,07,08,19.10
2009,07,29,07,09,19.10
2009,07,29,07,10,19.20
2009,07,29,07,11,19.30
2009,07,29,07,12,19.40
2009,07,29,07,13,19.50
2009,07,29,07,14,19.50
2009,07,29,07,15,19.50
2009,07,29,07,16,19.50
2009,07,29,07,17,19.50
2009,07,29,07,18,19.50
2009,07,29,07,19,19.40
2009,07,29,07,20,19.40
2009,07,29,07,21,19.30
2009,07,29,07,22,19.20
2009,07,29,07,23,19.20
2009,07,29,07,24,19.20
2009,07,29,07,25,19.10
2009,07,29,07,26,19.10
2009,07,29,07,27,19.10
2009,07,29,07,28,19.10
2009,07,29,07,29,19.20
2009,07,29,07,30,19.20
2009,07,29,07,31,19.30
2009,07,29,07,32,19.40
2009,07,29,07,33,19.40
2009,07,29,07,34,19.60
2009,07,29,07,35,19.70
2009,07,29,07,36,19.90
2009,07,29,07,37,20.20
2009,07,29,07,38,20.30
2009,07,29,07,39,20.50
2009,07,29,07,40,20.60
2009,07,29,07,41,20.80
2009,07,29,07,42,21.00
2009,07,29,07,43,21.10
2009,07,29,07,44,21.20
2009,07,29,07,45,21.30
2009,07,29,07,46,21.40
2009,07,29,07,47,21.50
2009,07,29,07,48,21.60
2009,07,29,07,49,21.70
2009,07,29,07,50,21.80
2009,07,29,07,51,21.90
2009,07,29,07,52,21.90
2009,07,29,07,53,22.00
2009,07,29,07,54,22.10
2009,07,29,07,55,22.20
2009,07,29,07,56,22.20
2009,07,29,07,57,22.30
2009,07,29,07,58,22.30
2009,07,29,07,59,22.40
2009,07,29,08,00,22.50
2009,07,29,08,01,22.50
2009,07,29,08,02,22.60
2009,07,29,08,03,22.60
2009,07,29,08,04,22.60
2009,07,29,08,05,22.70
2009,07,29,08,06,22.80
2009,07,29,08,07,22.80
2009,07,29,08,08,22.90
2009,07,29,08,09,22.90
2009,07,29,08,10,22.90
2009,07,29,08,11,23.10
2009,07,29,08,12,23.10
2009,07,29,08,13,23.20
2009,07,29,08,14,23.30
2009,07,29,08,15,23.30
2009,07,29,08,16,23.30
2009,07,29,08,17,23.30
2009,07,29,08,18,23.30
2009,07,29,08,19,23.30
2009,07,29,08,20,23.30
2009,07,29,08,21,23.30
2009,07,29,08,22,23.30
2009,07,29,08,23,23.30
2009,07,29,08,24,23.30
2009,07,29,08,25,23.30
2009,07,29,08,26,23.30
2009,07,29,08,27,23.30
2009,07,29,08,28,23.30
2009,07,29,08,29,23.30
2009,07,29,08,30,23.30
2009,07,29,08,31,23.30
2009,07,29,08,32,23.30
2009,07,29,08,33,23.30
2009,07,29,08,34,23.30
2009,07,29,08,35,23.30
2009,07,29,08,36,23.40
2009,07,29,08,37,23.40
2009,07,29,08,38,23.40
2009,07,29,08,39,23.50
2009,07,29,08,40,23.60
2009,07,29,08,41,23.60
2009,07,29,08,42,23.60
2009,07,29,08,43,23.70
2009,07,29,08,44,23.70
2009,07,29,08,45,23.70
2009,07,29,08,46,23.80
2009,07,29,08,47,23.90
2009,07,29,08,48,23.90
2009,07,29,08,49,24.00
2009,07,29,08,50,24.10
2009,07,29,08,51,24.10
2009,07,29,08,52,24.20
2009,07,29,08,53,24.30
2009,07,29,08,54,24.30
2009,07,29,08,55,24.40
2009,07,29,08,56,24.40
2009,07,29,08,57,24.50
2009,07,29,08,58,24.50
2009,07,29,08,59,24.60
2009,07,29,09,00,24.70
2009,07,29,09,01,24.70
2009,07,29,09,02,24.80
2009,07,29,09,03,24.90
2009,07,29,09,04,25.00
2009,07,29,09,05,25.00
2009,07,29,09,06,25.10
2009,07,29,09,07,25.20
2009,07,29,09,08,25.30
2009,07,29,09,09,25.30
2009,07,29,09,10,25.40
2009,07,29,09,11,25.40
2009,07,29,09,12,25.40
2009,07,29,09,13,25.40
2009,07,29,09,14,25.40
2009,07,29,09,15,25.40
2009,07,29,09,16,25.40
2009,07,29,09,17,25.40
2009,07,29,09,18,25.40
2009,07,29,09,19,25.40
2009,07,29,09,20,25.30
2009,07,29,09,21,25.40
2009,07,29,09,22,25.40
2009,07,29,09,23,25.40
2009,07,29,09,24,25.50
2009,07,29,09,25,25.50
2009,07,29,09,26,25.60
2009,07,29,09,27,25.70
2009,07,29,09,28,25.70
2009,07,29,09,29,25.70
2009,07,29,09,30,25.80
2009,07,29,09,31,25.80
2009,07,29,09,32,25.80
2009,07,29,09,33,25.90
2009,07,29,09,34,25.90
2009,07,29,09,35,25.90
2009,07,29,09,36,25.90
2009,07,29,09,37,26.00
2009,07,29,09,38,26.00
2009,07,29,09,39,26.00
2009,07,29,09,40,26.00
2009,07,29,09,41,26.00
2009,07,29,09,42,26.00
2009,07,29,09,43,26.00
2009,07,29,09,44,26.10
2009,07,29,09,45,26.10
2009,07,29,09,46,26.10
2009,07,29,09,47,26.10
2009,07,29,09,48,26.10
2009,07,29,09,49,26.10
2009,07,29,09,50,26.20
2009,07,29,09,51,26.20
2009,07,29,09,52,26.20
2009,07,29,09,53,26.20
2009,07,29,09,54,26.20
2009,07,29,09,55,26.20
2009,07,29,09,56,26.10
2009,07,29,09,57,26.10
2009,07,29,09,58,26.20
2009,07,29,09,59,26.20
2009,07,29,10,00,26.30
2009,07,29,10,01,26.30
2009,07,29,10,02,26.30
2009,07,29,10,03,26.30
2009,07,29,10,04,26.30
2009,07,29,10,05,26.30
2009,07,29,10,06,26.40
2009,07,29,10,07,26.40
2009,07,29,10,08,26.50
2009,07,29,10,09,26.60
2009,07,29,10,10,26.60
2009,07,29,10,11,26.60
2009,07,29,10,12,26.60
2009,07,29,10,13,26.60
2009,07,29,10,14,26.60
2009,07,29,10,15,26.60
2009,07,29,10,16,26.60
2009,07,29,10,17,26.60
2009,07,29,10,18,26.80
2009,07,29,10,19,26.90
2009,07,29,10,20,26.90
2009,07,29,10,21,26.90
2009,07,29,10,22,26.90
2009,07,29,10,23,26.90
2009,07,29,10,24,26.90
2009,07,29,10,25,26.80
2009,07,29,10,26,26.90
2009,07,29,10,27,26.90
2009,07,29,10,28,27.00
2009,07,29,10,29,27.10
2009,07,29,10,30,27.20
2009,07,29,10,31,27.30
2009,07,29,10,32,27.30
2009,07,29,10,33,27.40
2009,07,29,10,34,27.50
2009,07,29,10,35,27.60
2009,07,29,10,36,27.60
2009,07,29,10,37,27.50
2009,07,29,10,38,27.60
2009,07,29,10,39,27.50
2009,07,29,10,40,27.40
2009,07,29,10,41,27.40
2009,07,29,10,42,27.40
2009,07,29,10,43,27.40
2009,07,29,10,44,27.40
2009,07,29,10,45,27.40
2009,07,29,10,46,27.50
2009,07,29,10,47,27.60
2009,07,29,10,48,27.60
2009,07,29,10,49,27.60
2009,07,29,10,50,27.60
2009,07,29,10,51,27.70
2009,07,29,10,52,27.70
2009,07,29,10,53,27.70
2009,07,29,10,54,27.70
2009,07,29,10,55,27.80
2009,07,29,10,56,27.90
2009,07,29,10,57,28.00
2009,07,29,10,58,28.10
2009,07,29,10,59,28.10
2009,07,29,11,00,28.10
2009,07,29,11,01,28.10
2009,07,29,11,02,28.10
2009,07,29,11,03,28.10
2009,07,29,11,04,28.00
2009,07,29,11,05,28.10
2009,07,29,11,06,28.10
2009,07,29,11,07,28.10
2009,07,29,11,08,28.10
2009,07,29,11,09,28.20
2009,07,29,11,10,28.20
2009,07,29,11,11,28.20
2009,07,29,11,12,28.20
2009,07,29,11,13,28.30
2009,07,29,11,14,28.30
2009,07,29,11,15,28.30
2009,07,29,11,16,28.30
2009,07,29,11,17,28.30
2009,07,29,11,18,28.30
2009,07,29,11,19,28.40
2009,07,29,11,20,28.40
2009,07,29,11,21,28.60
2009,07,29,11,22,28.60
2009,07,29,11,23,28.60
2009,07,29,11,24,28.70
2009,07,29,11,25,28.80
2009,07,29,11,26,28.80
2009,07,29,11,27,28.80
2009,07,29,11,28,28.80
2009,07,29,11,29,28.80
2009,07,29,11,30,28.80
2009,07,29,11,31,28.80
2009,07,29,11,32,28.80
2009,07,29,11,33,28.80
2009,07,29,11,34,28.90
2009,07,29,11,35,28.90
2009,07,29,11,36,29.00
2009,07,29,11,37,29.10
2009,07,29,11,38,29.20
2009,07,29,11,39,29.20
2009,07,29,11,40,29.20
2009,07,29,11,41,29.20
2009,07,29,11,42,29.20
2009,07,29,11,43,29.20
2009,07,29,11,44,29.10
2009,07,29,11,45,29.10
2009,07,29,11,46,29.10
2009,07,29,11,47,29.20
2009,07,29,11,48,29.20
2009,07,29,11,49,29.20
2009,07,29,11,50,29.20
2009,07,29,11,51,29.10
2009,07,29,11,52,29.10
2009,07,29,11,53,29.10
2009,07,29,11,54,29.10
2009,07,29,11,55,29.10
2009,07,29,11,56,29.20
2009,07,29,11,57,29.10
2009,07,29,11,58,29.20
2009,07,29,11,59,29.20
2009,07,29,12,00,29.20
2009,07,29,12,01,29.30
2009,07,29,12,02,29.30
2009,07,29,12,03,29.30
2009,07,29,12,04,29.30
2009,07,29,12,05,29.40
2009,07,29,12,06,29.40
2009,07,29,12,07,29.40
2009,07,29,12,08,29.40
2009,07,29,12,09,29.50
2009,07,29,12,10,29.60
2009,07,29,12,11,29.60
2009,07,29,12,12,29.60
2009,07,29,12,13,29.60
2009,07,29,12,14,29.70
2009,07,29,12,15,29.70
2009,07,29,12,16,29.80
2009,07,29,12,17,29.80
2009,07,29,12,18,29.80
2009,07,29,12,19,29.90
2009,07,29,12,20,29.90
2009,07,29,12,21,29.90
2009,07,29,12,22,29.90
2009,07,29,12,23,29.90
2009,07,29,12,24,29.90
2009,07,29,12,25,29.90
2009,07,29,12,26,29.90
2009,07,29,12,27,29.90
2009,07,29,12,28,29.80
2009,07,29,12,29,29.80
2009,07,29,12,30,29.90
2009,07,29,12,31,29.90
2009,07,29,12,32,30.10
2009,07,29,12,33,30.20
2009,07,29,12,34,30.30
2009,07,29,12,35,30.50
2009,07,29,12,36,30.60
2009,07,29,12,37,30.70
2009,07,29,12,38,30.80
2009,07,29,12,39,30.80
2009,07,29,12,40,30.80
2009,07,29,12,41,30.80
2009,07,29,12,42,30.90
2009,07,29,12,43,30.90
2009,07,29,12,44,31.00
2009,07,29,12,45,30.90
2009,07,29,12,46,30.90
2009,07,29,12,47,30.80
2009,07,29,12,48,30.70
2009,07,29,12,49,30.70
2009,07,29,12,50,30.80
2009,07,29,12,51,30.90
2009,07,29,12,52,31.00
2009,07,29,12,53,31.00
2009,07,29,12,54,31.10
2009,07,29,12,55,31.10
2009,07,29,12,56,31.20
2009,07,29,12,57,31.30
2009,07,29,12,58,31.30
2009,07,29,12,59,31.30
2009,07,29,13,00,31.40
2009,07,29,13,01,31.40
2009,07,29,13,02,31.50
2009,07,29,13,03,31.60
2009,07,29,13,04,31.60
2009,07,29,13,05,31.80
2009,07,29,13,06,31.80
2009,07,29,13,07,31.90
2009,07,29,13,08,32.10
2009,07,29,13,09,32.10
2009,07,29,13,10,32.10
2009,07,29,13,11,32.10
2009,07,29,13,12,32.20
2009,07,29,13,13,32.20
2009,07,29,13,14,32.20
2009,07,29,13,15,32.20
2009,07,29,13,16,32.10
2009,07,29,13,17,32.00
2009,07,29,13,18,31.90
2009,07,29,13,19,31.60
2009,07,29,13,20,31.60
2009,07,29,13,21,31.50
2009,07,29,13,22,31.50
2009,07,29,13,23,31.60
2009,07,29,13,24,31.60
2009,07,29,13,25,31.70
2009,07,29,13,26,31.80
2009,07,29,13,27,31.80
2009,07,29,13,28,31.90
2009,07,29,13,29,32.00
2009,07,29,13,30,32.00
2009,07,29,13,31,31.90
2009,07,29,13,32,31.90
2009,07,29,13,33,32.00
2009,07,29,13,34,32.10
2009,07,29,13,35,32.20
2009,07,29,13,36,32.20
2009,07,29,13,37,32.30
2009,07,29,13,38,32.30
2009,07,29,13,39,32.20
2009,07,29,13,40,32.30
2009,07,29,13,41,32.40
2009,07,29,13,42,32.30
2009,07,29,13,43,32.30
2009,07,29,13,44,32.20
2009,07,29,13,45,32.20
2009,07,29,13,46,32.30
2009,07,29,13,47,32.20
2009,07,29,13,48,32.20
2009,07,29,13,49,32.30
2009,07,29,13,50,32.40
2009,07,29,13,51,32.50
2009,07,29,13,52,32.50
2009,07,29,13,53,32.60
2009,07,29,13,54,32.70
2009,07,29,13,55,32.80
2009,07,29,13,56,32.90
2009,07,29,13,57,33.00
2009,07,29,13,58,33.00
2009,07,29,13,59,32.90
2009,07,29,14,00,32.90
2009,07,29,14,01,33.00
2009,07,29,14,02,33.00
2009,07,29,14,03,33.00
2009,07,29,14,04,33.20
2009,07,29,14,05,33.20
2009,07,29,14,06,33.40
2009,07,29,14,07,33.40
2009,07,29,14,08,33.40
2009,07,29,14,09,33.30
2009,07,29,14,10,33.20
2009,07,29,14,11,33.20
2009,07,29,14,12,33.30
2009,07,29,14,13,33.30
2009,07,29,14,14,33.20
2009,07,29,14,15,33.10
2009,07,29,14,16,33.10
2009,07,29,14,17,33.10
2009,07,29,14,18,33.10
2009,07,29,14,19,33.20
2009,07,29,14,20,33.30
2009,07,29,14,21,33.40
2009,07,29,14,22,33.50
2009,07,29,14,23,33.50
2009,07,29,14,24,33.50
2009,07,29,14,25,33.40
2009,07,29,14,26,33.40
2009,07,29,14,27,33.40
2009,07,29,14,28,33.40
2009,07,29,14,29,33.40
2009,07,29,14,30,33.40
2009,07,29,14,31,33.40
2009,07,29,14,32,33.20
2009,07,29,14,33,33.20
2009,07,29,14,34,33.20
2009,07,29,14,35,33.20
2009,07,29,14,36,33.20
2009,07,29,14,37,33.20
2009,07,29,14,38,33.30
2009,07,29,14,39,33.40
2009,07,29,14,40,33.50
2009,07,29,14,41,33.40
2009,07,29,14,42,33.40
2009,07,29,14,43,33.40
2009,07,29,14,44,33.40
2009,07,29,14,45,33.30
2009,07,29,14,46,33.20
2009,07,29,14,47,33.20
2009,07,29,14,48,33.20
2009,07,29,14,49,33.10
2009,07,29,14,50,33.10
2009,07,29,14,51,33.00
2009,07,29,14,52,33.00
2009,07,29,14,53,33.00
2009,07,29,14,54,33.00
2009,07,29,14,55,33.00
2009,07,29,14,56,33.00
2009,07,29,14,57,33.00
2009,07,29,14,58,32.90
2009,07,29,14,59,32.90
2009,07,29,15,00,32.90
2009,07,29,15,01,33.00
2009,07,29,15,02,33.00
2009,07,29,15,03,33.00
2009,07,29,15,04,33.10
2009,07,29,15,05,33.00
2009,07,29,15,06,33.00
2009,07,29,15,07,33.10
2009,07,29,15,08,33.10
2009,07,29,15,09,33.20
2009,07,29,15,10,33.30
2009,07,29,15,11,33.50
2009,07,29,15,12,33.50
2009,07,29,15,13,33.50
2009,07,29,15,14,33.50
2009,07,29,15,15,33.50
2009,07,29,15,16,33.60
2009,07,29,15,17,33.60
2009,07,29,15,18,33.60
2009,07,29,15,19,33.50
2009,07,29,15,20,33.50
2009,07,29,15,21,33.50
2009,07,29,15,22,33.50
2009,07,29,15,23,33.50
2009,07,29,15,24,33.60
2009,07,29,15,25,33.60
2009,07,29,15,26,33.60
2009,07,29,15,27,33.70
2009,07,29,15,28,33.70
2009,07,29,15,29,33.70
2009,07,29,15,30,33.70
2009,07,29,15,31,33.80
2009,07,29,15,32,33.80
2009,07,29,15,33,34.00
2009,07,29,15,34,34.10
2009,07,29,15,35,34.10
2009,07,29,15,36,34.20
2009,07,29,15,37,34.20
2009,07,29,15,38,34.00
2009,07,29,15,39,33.20
2009,07,29,15,40,32.40
2009,07,29,15,41,31.70
2009,07,29,15,42,31.30
2009,07,29,15,43,31.10
2009,07,29,15,44,30.90
2009,07,29,15,45,30.70
2009,07,29,15,46,30.60
2009,07,29,15,47,30.50
2009,07,29,15,48,30.40
2009,07,29,15,49,30.40
2009,07,29,15,50,30.30
2009,07,29,15,51,30.30
2009,07,29,15,52,30.30
2009,07,29,15,53,30.30
2009,07,29,15,54,30.40
2009,07,29,15,55,30.60
2009,07,29,15,56,30.60
2009,07,29,15,57,30.40
2009,07,29,15,58,30.40
2009,07,29,15,59,30.60
2009,07,29,16,00,30.60
2009,07,29,16,01,30.70
2009,07,29,16,02,30.80
2009,07,29,16,03,30.90
2009,07,29,16,04,30.90
2009,07,29,16,05,30.90
2009,07,29,16,06,30.90
2009,07,29,16,07,31.00
2009,07,29,16,08,31.10
2009,07,29,16,09,31.30
2009,07,29,16,10,31.40
2009,07,29,16,11,31.60
2009,07,29,16,12,31.60
2009,07,29,16,13,31.70
2009,07,29,16,14,31.70
2009,07,29,16,15,31.70
2009,07,29,16,16,31.80
2009,07,29,16,17,31.80
2009,07,29,16,18,31.90
2009,07,29,16,19,31.90
2009,07,29,16,20,31.90
2009,07,29,16,21,31.90
2009,07,29,16,22,31.80
2009,07,29,16,23,31.70
2009,07,29,16,24,31.70
2009,07,29,16,25,31.80
2009,07,29,16,26,31.90
2009,07,29,16,27,32.00
2009,07,29,16,28,32.10
2009,07,29,16,29,32.20
2009,07,29,16,30,32.30
2009,07,29,16,31,32.40
2009,07,29,16,32,32.50
2009,07,29,16,33,32.50
2009,07,29,16,34,32.50
2009,07,29,16,35,32.60
2009,07,29,16,36,32.70
2009,07,29,16,37,32.80
2009,07,29,16,38,32.60
2009,07,29,16,39,32.60
2009,07,29,16,40,32.80
2009,07,29,16,41,32.80
2009,07,29,16,42,32.80
2009,07,29,16,43,32.80
2009,07,29,16,44,32.80
2009,07,29,16,45,32.60
2009,07,29,16,46,32.50
2009,07,29,16,47,32.40
2009,07,29,16,48,32.30
2009,07,29,16,49,32.20
2009,07,29,16,50,32.20
2009,07,29,16,51,32.10
2009,07,29,16,52,32.10
2009,07,29,16,53,32.00
2009,07,29,16,54,31.90
2009,07,29,16,55,31.80
2009,07,29,16,56,31.80
2009,07,29,16,57,31.90
2009,07,29,16,58,31.90
2009,07,29,16,59,31.90
2009,07,29,17,00,31.70
2009,07,29,17,01,31.30
2009,07,29,17,02,30.80
2009,07,29,17,03,30.40
2009,07,29,17,04,30.10
2009,07,29,17,05,29.80
2009,07,29,17,06,29.60
2009,07,29,17,07,29.50
2009,07,29,17,08,29.40
2009,07,29,17,09,29.30
2009,07,29,17,10,29.10
2009,07,29,17,11,28.80
2009,07,29,17,12,28.60
2009,07,29,17,13,28.50
2009,07,29,17,14,28.40
2009,07,29,17,15,28.30
2009,07,29,17,16,28.20
2009,07,29,17,17,28.10
2009,07,29,17,18,28.00
2009,07,29,17,19,28.00